Weather History for Dublin, Ireland

Change the Weather History Date:

Wednesday, October 26, 2011

  Actual Average Record
Temperature  
Mean Temperature 47 °F -  
Max Temperature 53 °F 51 °F 66 °F (2005)
Min Temperature 41 °F 41 °F 35 °F (2004)
Degree Days  
Heating Degree Days 18    
Moisture  
Dew Point 41 °F    
Average Humidity 78    
Maximum Humidity 93    
Minimum Humidity 60    
Precipitation  
Precipitation 0.00 in 0.09 in - ()
Sea Level Pressure  
Sea Level Pressure 29.45 in    
Wind  
Wind Speed 7 mph ()    
Max Wind Speed 14 mph    
Max Gust Speed -    
Visibility 6.7 miles    
Events      
Averages and records for this station are not official NWS values.
T = Trace of Precipitation, MM = Missing Value Source: Averaged Metar Reports

Daily Weather History Graph

Daily Weather History Graph

Search for Another Location

Airport:

Trip Planner

Search our weather history database for the weather conditions in past years. The results will help you decide how hot, cold, wet, or windy it might be!

Date:

Astronomy

Oct. 26, 2011 Rise Set
Actual Time 8:11 AM IST 6:05 PM IST
Civil Twilight 7:35 AM IST 6:41 PM IST
Nautical Twilight 6:54 AM IST 7:22 PM IST
Astronomical Twilight 6:14 AM IST 8:02 PM IST
Moon 7:47 AM IST (10/26) 5:29 PM IST (10/26)
Length of Visible Light 11h 06m
Length of Day
9h 53m
Waning Crescent, 0% of the Moon is Illuminated
Oct 26
Waning Crescent
Oct 26
New
Nov 2
First Quarter
Nov 10
Full
Nov 18
Last Quarter

Hourly Weather History & Observations

Time (IST) Temp. Windchill Dew Point Humidity Pressure Visibility Wind Dir Wind Speed Gust Speed Precip Events Conditions
12:00 AM 46.4 °F 41.1 °F 42.8 °F 87% 29.39 in 6.2 mi SSE 11.5 mph - N/A   Mostly Cloudy
12:30 AM 46.4 °F 42.9 °F 42.8 °F 87% 29.39 in 6.2 mi SSE 6.9 mph - N/A   Mostly Cloudy
1:00 AM 46 °F - 42 °F 80% 29.41 in 16 mi South 8.9 mph - -   Partly Cloudy
1:00 AM 44.6 °F 40.2 °F 41.0 °F 87% 29.39 in 6.2 mi South 8.1 mph - N/A   Mostly Cloudy
1:30 AM 44.6 °F 42.2 °F 41.0 °F 87% 29.39 in 6.2 mi South 4.6 mph - N/A   Mostly Cloudy
2:00 AM 44.6 °F 40.2 °F 41.0 °F 87% 29.39 in 6.2 mi South 8.1 mph - N/A   Scattered Clouds
2:30 AM 42.8 °F 41.1 °F 41.0 °F 93% 29.39 in 6.2 mi South 3.5 mph - N/A   Scattered Clouds
3:00 AM 42.8 °F 38.6 °F 41.0 °F 93% 29.39 in 6.2 mi SSW 6.9 mph - N/A   Mostly Cloudy
3:30 AM 42.8 °F 39.3 °F 41.0 °F 93% 29.42 in 6.2 mi SW 5.8 mph - N/A   Scattered Clouds
4:00 AM 42.8 °F 39.3 °F 39.2 °F 87% 29.42 in 6.2 mi SSW 5.8 mph - N/A   Mostly Cloudy
4:30 AM 42.8 °F 40.1 °F 39.2 °F 87% 29.42 in 6.2 mi SSW 4.6 mph - N/A   Scattered Clouds
5:00 AM 42.8 °F 40.1 °F 39.2 °F 87% 29.42 in 6.2 mi SSE 4.6 mph - N/A   Scattered Clouds
5:30 AM 42.8 °F 40.1 °F 39.2 °F 87% 29.42 in 6.2 mi SSW 4.6 mph - N/A   Mostly Cloudy
6:00 AM 42.8 °F 40.1 °F 39.2 °F 87% 29.42 in 6.2 mi South 4.6 mph - N/A   Scattered Clouds
6:30 AM 42.8 °F 40.1 °F 39.2 °F 87% 29.42 in 6.2 mi South 4.6 mph - N/A   Mostly Cloudy
7:00 AM 45 °F - 39 °F 73% 29.44 in 19 mi South 4.5 mph - -   Partly Cloudy
7:00 AM 44.6 °F 42.2 °F 39.2 °F 81% 29.42 in 6.2 mi South 4.6 mph - N/A   Mostly Cloudy
7:30 AM 46.4 °F 45.2 °F 39.2 °F 76% 29.42 in 6.2 mi South 3.5 mph - N/A   Mostly Cloudy
8:00 AM 44.6 °F 43.1 °F 39.2 °F 81% 29.42 in 6.2 mi Variable 3.5 mph - N/A   Mostly Cloudy
8:30 AM 44.6 °F 42.2 °F 39.2 °F 81% 29.44 in 6.2 mi SSW 4.6 mph - N/A   Mostly Cloudy
9:00 AM 42.8 °F 41.1 °F 39.2 °F 87% 29.44 in 6.2 mi Variable 3.5 mph - N/A   Mostly Cloudy
9:30 AM 44.6 °F 43.1 °F 39.2 °F 81% 29.44 in 6.2 mi South 3.5 mph - N/A   Mostly Cloudy
10:00 AM 48.2 °F - 41.0 °F 76% 29.44 in 6.2 mi SSW 4.6 mph - N/A   Scattered Clouds
10:30 AM 50.0 °F - 41.0 °F 71% 29.44 in 6.2 mi SSW 10.4 mph - N/A   Scattered Clouds
11:00 AM 50.0 °F - 41.0 °F 71% 29.44 in 6.2 mi South 8.1 mph - N/A   Scattered Clouds
11:30 AM 50.0 °F - 41.0 °F 71% 29.44 in 6.2 mi South 6.9 mph - N/A   Mostly Cloudy
12:00 PM 50.0 °F - 41.0 °F 71% 29.44 in 6.2 mi South 6.9 mph - N/A   Mostly Cloudy
12:30 PM 50.0 °F - 41.0 °F 71% 29.47 in 6.2 mi South 9.2 mph - N/A   Mostly Cloudy
1:00 PM 51 °F - 41 °F 60% 29.47 in 31 mi SSW 11.2 mph - -   Scattered Clouds
1:00 PM 50.0 °F - 41.0 °F 71% 29.47 in 6.2 mi SSW 11.5 mph - N/A   Mostly Cloudy
1:30 PM 50.0 °F - 42.8 °F 76% 29.47 in 6.2 mi SSW 9.2 mph - N/A   Mostly Cloudy
2:00 PM 51.8 °F - 41.0 °F 67% 29.47 in 6.2 mi SSW 6.9 mph - N/A   Mostly Cloudy
2:30 PM 51.8 °F - 41.0 °F 67% 29.44 in 6.2 mi SSW 9.2 mph - N/A   Mostly Cloudy
3:00 PM 51.8 °F - 42.8 °F 71% 29.47 in 6.2 mi SSW 9.2 mph - N/A   Mostly Cloudy
3:30 PM 51.8 °F - 42.8 °F 71% 29.44 in 6.2 mi SSW 10.4 mph - N/A   Mostly Cloudy
4:00 PM 51.8 °F - 41.0 °F 67% 29.44 in 6.2 mi South 10.4 mph - N/A   Mostly Cloudy
4:30 PM 53.6 °F - 41.0 °F 62% 29.44 in 6.2 mi SSW 13.8 mph - N/A   Scattered Clouds
5:00 PM 51.8 °F - 41.0 °F 67% 29.44 in 6.2 mi SSW 11.5 mph - N/A   Scattered Clouds
5:30 PM 51.8 °F - 41.0 °F 67% 29.47 in 6.2 mi SSW 11.5 mph - N/A   Partly Cloudy
6:00 PM 50.0 °F - 41.0 °F 71% 29.47 in 6.2 mi SSW 12.7 mph - N/A   Partly Cloudy
6:30 PM 48.2 °F - 41.0 °F 76% 29.47 in 6.2 mi South 11.5 mph - N/A   Partly Cloudy
7:00 PM 48 °F - 41 °F 68% 29.51 in 31 mi South 8.9 mph - -   Scattered Clouds
7:00 PM 48.2 °F - 41.0 °F 76% 29.50 in 6.2 mi South 10.4 mph - N/A   Partly Cloudy
7:30 PM 48.2 °F - 41.0 °F 76% 29.50 in 6.2 mi South 10.4 mph - N/A   Partly Cloudy
8:00 PM 48.2 °F - 41.0 °F 76% 29.50 in 6.2 mi South 10.4 mph - N/A   Partly Cloudy
8:30 PM 48.2 °F - 41.0 °F 76% 29.50 in 6.2 mi South 8.1 mph - N/A   Partly Cloudy
9:00 PM 48.2 °F - 42.8 °F 82% 29.50 in 6.2 mi SSW 12.7 mph - N/A   Partly Cloudy
9:30 PM 48.2 °F - 41.0 °F 76% 29.50 in 6.2 mi SSW 12.7 mph - N/A   Partly Cloudy
10:00 PM 48.2 °F - 41.0 °F 76% 29.50 in 6.2 mi SSW 10.4 mph - N/A   Partly Cloudy
10:30 PM 48.2 °F - 41.0 °F 76% 29.53 in 6.2 mi SSW 12.7 mph - N/A   Partly Cloudy
11:00 PM 48.2 °F - 41.0 °F 76% 29.53 in 6.2 mi South 11.5 mph - N/A   Partly Cloudy
11:30 PM 48.2 °F - 41.0 °F 76% 29.53 in 6.2 mi South 10.4 mph - N/A   Partly Cloudy